Hourly Weather Smorodinka

Today, 9 May, Sunday

Time Temperature Precipitation Wind Pressure Humidity
00:00 +16°C° 0 mm 3 mps 756 mmHg 58%
01:00 +14°C° 0 mm 3 mps 755 mmHg 60%
02:00 +14°C° 0 mm 3 mps 755 mmHg 61%
03:00 +14°C° 0 mm 3 mps 755 mmHg 63%
04:00 +14°C° 0 mm 3 mps 755 mmHg 62%
05:00 +16°C° 0 mm 3 mps 755 mmHg 62%
06:00 +16°C° 0 mm 3 mps 755 mmHg 62%
07:00 +18°C° 0 mm 3 mps 755 mmHg 56%
08:00 +20°C° 0 mm 4 mps 755 mmHg 50%
09:00 +22°C° 0 mm 4 mps 755 mmHg 45%
10:00 +23°C° 0 mm 4 mps 755 mmHg 42%
11:00 +25°C° 0 mm 5 mps 755 mmHg 39%
12:00 +26°C° 0 mm 5 mps 755 mmHg 36%
13:00 +26°C° 0 mm 5 mps 755 mmHg 36%
14:00 +26°C° 0 mm 5 mps 755 mmHg 36%
15:00 +26°C° 0 mm 5 mps 754 mmHg 36%
16:00 +25°C° 0 mm 4 mps 755 mmHg 40%
17:00 +23°C° 0 mm 4 mps 755 mmHg 43%
18:00 +22°C° 0 mm 3 mps 755 mmHg 46%
19:00 +21°C° 0 mm 4 mps 755 mmHg 47%
20:00 +20°C° 0 mm 4 mps 755 mmHg 49%
21:00 +18°C° 0 mm 4 mps 755 mmHg 50%
22:00 +18°C° 0 mm 4 mps 755 mmHg 50%
23:00 +18°C° 0 mm 4 mps 755 mmHg 51%

Tomorrow, 10 May, Monday

Time Temperature Precipitation Wind Pressure Humidity
00:00 +17°C° 0 mm 4 mps 755 mmHg 52%
01:00 +17°C° 0 mm 4 mps 755 mmHg 54%
02:00 +15°C° 0 mm 4 mps 755 mmHg 56%
03:00 +15°C° 0 mm 4 mps 755 mmHg 58%
04:00 +15°C° 0 mm 4 mps 756 mmHg 57%
05:00 +16°C° 0 mm 5 mps 756 mmHg 56%
06:00 +16°C° 0 mm 5 mps 756 mmHg 56%
07:00 +19°C° 0 mm 6 mps 756 mmHg 50%
08:00 +21°C° 0 mm 6 mps 756 mmHg 45%
09:00 +23°C° 0 mm 7 mps 757 mmHg 39%
10:00 +24°C° 0 mm 7 mps 757 mmHg 36%
11:00 +26°C° 0 mm 7 mps 757 mmHg 34%
12:00 +27°C° 0 mm 7 mps 757 mmHg 31%
13:00 +27°C° 0 mm 7 mps 757 mmHg 32%
14:00 +27°C° 0 mm 6 mps 757 mmHg 33%
15:00 +27°C° 0 mm 6 mps 757 mmHg 34%
16:00 +26°C° 0 mm 6 mps 757 mmHg 37%
17:00 +24°C° 0 mm 6 mps 757 mmHg 41%
18:00 +23°C° 0 mm 6 mps 757 mmHg 44%
19:00 +22°C° 0 mm 6 mps 757 mmHg 45%
20:00 +21°C° 0 mm 6 mps 758 mmHg 46%
21:00 +20°C° 0 mm 6 mps 758 mmHg 47%
22:00 +20°C° 0 mm 6 mps 758 mmHg 48%
23:00 +20°C° 0 mm 6 mps 759 mmHg 50%

Day after tomorrow, 11 May, Tuesday

Time Temperature Precipitation Wind Pressure Humidity
00:00 +18°C° 0 mm 7 mps 759 mmHg 51%
01:00 +19°C° 0 mm 6 mps 759 mmHg 52%
02:00 +19°C° 0 mm 6 mps 759 mmHg 52%
03:00 +17°C° 0 mm 6 mps 760 mmHg 53%
04:00 +17°C° 0 mm 6 mps 760 mmHg 56%
05:00 +17°C° 0 mm 5 mps 761 mmHg 58%
06:00 +17°C° 0 mm 5 mps 761 mmHg 60%
07:00 +20°C° 0 mm 5 mps 761 mmHg 56%
08:00 +21°C° 0 mm 5 mps 762 mmHg 52%
09:00 +22°C° 0 mm 5 mps 762 mmHg 48%
10:00 +24°C° 0 mm 6 mps 762 mmHg 45%
11:00 +26°C° 0 mm 6 mps 762 mmHg 42%
12:00 +27°C° 0 mm 6 mps 762 mmHg 39%
13:00 +27°C° 0 mm 6 mps 762 mmHg 39%
14:00 +27°C° 0 mm 6 mps 762 mmHg 39%
15:00 +27°C° 0 mm 6 mps 762 mmHg 38%
16:00 +26°C° 0 mm 6 mps 762 mmHg 42%
17:00 +25°C° 0 mm 5 mps 762 mmHg 46%
18:00 +23°C° 0 mm 5 mps 763 mmHg 50%
19:00 +21°C° 0 mm 4 mps 763 mmHg 55%
20:00 +20°C° 0 mm 4 mps 763 mmHg 60%
21:00 +18°C° 0 mm 3 mps 763 mmHg 66%
22:00 +18°C° 0 mm 4 mps 763 mmHg 65%
23:00 +18°C° 0 mm 4 mps 763 mmHg 64%

12 May, Wednesday

Time Temperature Precipitation Wind Pressure Humidity
00:00 +17°C° 0 mm 5 mps 763 mmHg 64%
01:00 +17°C° 0 mm 5 mps 763 mmHg 59%
02:00 +17°C° 0 mm 5 mps 763 mmHg 54%
03:00 +17°C° 0 mm 6 mps 763 mmHg 50%
04:00 +17°C° 0 mm 6 mps 763 mmHg 52%
05:00 +17°C° 0 mm 6 mps 764 mmHg 53%
06:00 +17°C° 0 mm 6 mps 764 mmHg 55%
07:00 +19°C° 0 mm 6 mps 764 mmHg 49%
08:00 +21°C° 0 mm 7 mps 764 mmHg 43%
09:00 +22°C° 0 mm 8 mps 764 mmHg 37%
10:00 +23°C° 0 mm 7 mps 764 mmHg 37%
11:00 +23°C° 0 mm 7 mps 764 mmHg 36%
12:00 +23°C° 0 mm 7 mps 764 mmHg 36%
13:00 +22°C° 0.1 mm 6 mps 764 mmHg 45%
14:00 +20°C° 0.1 mm 6 mps 765 mmHg 53%
15:00 +19°C° 0.1 mm 5 mps 765 mmHg 62%
16:00 +19°C° 0 mm 5 mps 764 mmHg 58%
17:00 +20°C° 0 mm 4 mps 764 mmHg 53%
18:00 +21°C° 0 mm 4 mps 764 mmHg 49%
19:00 +20°C° 0 mm 4 mps 764 mmHg 49%
20:00 +19°C° 0 mm 4 mps 764 mmHg 49%
21:00 +19°C° 0 mm 5 mps 764 mmHg 49%
22:00 +17°C° 0 mm 5 mps 763 mmHg 50%
23:00 +17°C° 0 mm 5 mps 763 mmHg 51%

13 May, Thursday

Time Temperature Precipitation Wind Pressure Humidity
00:00 +16°C° 0 mm 5 mps 763 mmHg 51%
01:00 +16°C° 0 mm 5 mps 763 mmHg 51%
02:00 +16°C° 0 mm 5 mps 763 mmHg 51%
03:00 +15°C° 0 mm 5 mps 763 mmHg 52%
04:00 +16°C° 0 mm 5 mps 763 mmHg 52%
05:00 +16°C° 0 mm 5 mps 763 mmHg 52%
06:00 +16°C° 0 mm 5 mps 763 mmHg 53%
07:00 +17°C° 0 mm 5 mps 763 mmHg 50%
08:00 +20°C° 0 mm 6 mps 763 mmHg 46%
09:00 +21°C° 0 mm 6 mps 763 mmHg 43%
10:00 +22°C° 0 mm 6 mps 763 mmHg 41%
11:00 +23°C° 0 mm 6 mps 763 mmHg 39%
12:00 +24°C° 0 mm 6 mps 763 mmHg 37%
13:00 +24°C° 0 mm 6 mps 763 mmHg 35%
14:00 +26°C° 0 mm 6 mps 763 mmHg 33%
15:00 +27°C° 0 mm 6 mps 763 mmHg 31%
16:00 +26°C° 0 mm 5 mps 763 mmHg 35%
17:00 +25°C° 0 mm 4 mps 763 mmHg 39%
18:00 +24°C° 0 mm 3 mps 763 mmHg 43%
19:00 +22°C° 0 mm 3 mps 763 mmHg 45%
20:00 +20°C° 0 mm 3 mps 763 mmHg 47%
21:00 +19°C° 0 mm 4 mps 763 mmHg 49%
22:00 +18°C° 0 mm 4 mps 763 mmHg 49%
23:00 +18°C° 0 mm 4 mps 763 mmHg 48%

14 May, Friday

Time Temperature Precipitation Wind Pressure Humidity
00:00 +17°C° 0 mm 4 mps 763 mmHg 48%
01:00 +17°C° 0 mm 4 mps 763 mmHg 49%
02:00 +17°C° 0 mm 4 mps 763 mmHg 50%
03:00 +15°C° 0 mm 4 mps 763 mmHg 51%
04:00 +17°C° 0 mm 4 mps 763 mmHg 50%
05:00 +17°C° 0 mm 5 mps 763 mmHg 50%
06:00 +19°C° 0 mm 5 mps 764 mmHg 49%
07:00 +21°C° 0 mm 5 mps 764 mmHg 44%
08:00 +23°C° 0 mm 6 mps 763 mmHg 39%
09:00 +26°C° 0 mm 6 mps 763 mmHg 33%
10:00 +27°C° 0 mm 6 mps 763 mmHg 31%
11:00 +29°C° 0 mm 6 mps 763 mmHg 28%
12:00 +30°C° 0 mm 7 mps 763 mmHg 25%
13:00 +30°C° 0 mm 6 mps 763 mmHg 25%
14:00 +30°C° 0 mm 6 mps 763 mmHg 25%
15:00 +30°C° 0 mm 6 mps 763 mmHg 25%
16:00 +29°C° 0 mm 5 mps 763 mmHg 31%
17:00 +28°C° 0 mm 4 mps 762 mmHg 36%
18:00 +26°C° 0 mm 3 mps 762 mmHg 41%
19:00 +25°C° 0 mm 4 mps 762 mmHg 43%
20:00 +23°C° 0 mm 4 mps 762 mmHg 45%
21:00 +22°C° 0 mm 4 mps 762 mmHg 46%
22:00 +21°C° 0 mm 4 mps 762 mmHg 47%
23:00 +20°C° 0 mm 4 mps 762 mmHg 47%
Show more

We Need Your Consent

Meteoprog and our Service Providers may store and access personal data such as cookies, device identifiers or other similar technologies on your device and process such data to personalise content and ads, as well as provide social media features and to analyse the traffic.

  • Store and/or access information on your device

    Cookies, device identifiers or other information can be stored or accessed on your device for the purposes indicated above.

  • Personalised ads and content, ad and content measurement, audience insights, and products development

    Ads and content can be personalised based on a profile. More data can be added to better personalise ads and content. Ad and content performance can be measured. Insights about the audience who saw the ads and content can be derived. Such data can be used to develop or improve user’s experience, systems and software.

By clicking ‘I Agree’ you will allow the use of indicated cookies, device identifiers, web beacons or other similar technologies. Your settings can be changed in the browser on your device.

For certain purposes, legitimate interests may be relied on, rather than consent. You can read more about this in our Privacy and Cookie Policy.